Location: Chatou
(48.8898°N, 2.1586°E)
Time: 06:46:28
(UTC+00:00)

Feng Yun 1-1 Rocket - Pass Details

Date: 03 February 2023
Orbit: 830 x 933 km, 99.1° (Epoch: 21 March)

Event Time Altitude Azimuth Distance (km) Brightness Sun altitude
Rises 18:29:09 0° 147° (SSE) 3,452 7.1 -16.2°
Reaches altitude 10° 18:31:36 10° 143° (SE) 2,504 6.4 -16.6°
Maximum altitude 18:36:58 53° 68° (ENE) 1,036 4.3 -17.5°
Drops below altitude 10° 18:42:16 10° 353° (N) 2,466 6.7 -18.3°
Sets 18:44:39 0° 349° (NNW) 3,397 7.4 -18.7°
